This is the latest recevied weather packets stored in our database for station/object AC5CM. If no packets are shown the sender has not sent any weather packets the latest 10 day(s).
| Time | Temp. | Humidity | Pressure | Rain* | Wind** | Luminosity | Snow |
|---|---|---|---|---|---|---|---|
| 1777656018 | 17.78° C | 97% | 1010.4 hPa | 1.27 mm | - | - | - |
| 1777655714 | 17.78° C | 97% | 1010.8 hPa | 3.05 mm | - | - | - |
| 1777655411 | 17.78° C | 97% | 1010.7 hPa | 6.1 mm | - | - | - |
| 1777655108 | 17.78° C | 97% | 1011.1 hPa | 4.32 mm | - | - | - |
| 1777654805 | 17.78° C | 97% | 1011.7 hPa | 0 mm | - | - | - |
| 1777654503 | 17.78° C | 97% | 1011.9 hPa | 0 mm | - | - | - |
| 1777654200 | 17.78° C | 97% | 1011.5 hPa | 1.78 mm | - | - | - |
| 1777653898 | 17.78° C | 97% | 1011.5 hPa | 3.56 mm | - | - | - |
| 1777653594 | 17.78° C | 97% | 1011.6 hPa | 4.83 mm | - | - | - |
| 1777653290 | 17.78° C | 97% | 1011.9 hPa | 19.81 mm | - | - | - |
| 1777652987 | 17.22° C | 97% | 1012.2 hPa | 49.78 mm | - | - | - |
| 1777652683 | 17.22° C | 96% | 1012.8 hPa | 67.31 mm | - | - | - |
| 1777652381 | 17.78° C | 96% | 1012 hPa | 50.29 mm | - | - | - |
| 1777652077 | 17.78° C | 95% | 1013.2 hPa | 10.16 mm | - | - | - |
| 1777651774 | 17.78° C | 95% | 1013.2 hPa | 0 mm | - | - | - |
| 1777651471 | 17.78° C | 95% | 1012.1 hPa | 0 mm | - | - | - |
| 1777651169 | 17.78° C | 95% | 1011.8 hPa | 0 mm | - | - | - |
| 1777650865 | 17.78° C | 95% | 1012.2 hPa | 0 mm | - | - | - |
| 1777650562 | 17.78° C | 95% | 1011.5 hPa | 1.78 mm | - | - | - |
| 1777650259 | 17.78° C | 95% | 1011.7 hPa | 0 mm | - | - | - |
| 1777649956 | 17.78° C | 95% | 1012 hPa | 0 mm | - | - | - |
| 1777649654 | 17.78° C | 95% | 1012 hPa | 0 mm | - | - | - |
| 1777649349 | 17.78° C | 95% | 1011.9 hPa | 0 mm | - | - | - |
| 1777649047 | 17.78° C | 95% | 1011.6 hPa | 0 mm | - | - | - |
| 1777648745 | 17.78° C | 95% | 1012.2 hPa | 0 mm | - | - | - |
* Rain latest hour (hover to see other rain measurements)
** Current wind speed in m/s (hover to see current wind gust speed)